�������l�o���
Date,Time,MP-1(��Sv/h),MP-2(��Sv/h),MP-3(��Sv/h),MP-4(��Sv/h),MP-5(��Sv/h),MP-6(��Sv/h),MP-7(��Sv/h),MP-8(��Sv/h),����,����(m/s),���J
2022/03/23,00:00,0.501,0.694,0.454,0.899,0.582,0.312,0.555,0.544,�k�k��,3.5,��
2022/03/23,00:10,0.502,0.694,0.456,0.899,0.584,0.311,0.557,0.545,�k�k��,3.7,��
2022/03/23,00:20,0.501,0.695,0.456,0.899,0.584,0.312,0.556,0.543,�k�k��,4.1,��
2022/03/23,00:30,0.500,0.695,0.454,0.900,0.583,0.311,0.557,0.545,�k��,4.7,��
2022/03/23,00:40,0.501,0.695,0.455,0.901,0.587,0.312,0.556,0.544,�k��,5.8,��
2022/03/23,00:50,0.500,0.697,0.455,0.901,0.584,0.311,0.557,0.545,�k��,5.1,��
2022/03/23,01:00,0.500,0.696,0.456,0.900,0.585,0.312,0.554,0.545,�k��,4.7,��
2022/03/23,01:10,0.502,0.695,0.457,0.902,0.585,0.311,0.557,0.543,�k��,5.0,��
2022/03/23,01:20,0.500,0.695,0.456,0.901,0.584,0.311,0.557,0.545,�k��,6.0,��
2022/03/23,01:30,0.501,0.696,0.456,0.901,0.586,0.312,0.557,0.543,�k��,6.4,��
2022/03/23,01:40,0.500,0.696,0.455,0.901,0.586,0.312,0.556,0.543,�k�k��,6.4,��
2022/03/23,01:50,0.503,0.695,0.456,0.902,0.586,0.312,0.558,0.545,�k��,5.5,��
2022/03/23,02:00,0.501,0.696,0.457,0.902,0.586,0.313,0.557,0.546,�k��,5.5,��
2022/03/23,02:10,0.502,0.695,0.456,0.901,0.588,0.312,0.556,0.545,�k��,6.0,��
2022/03/23,02:20,0.501,0.697,0.456,0.902,0.587,0.312,0.557,0.544,�k��,4.9,��
2022/03/23,02:30,0.501,0.696,0.457,0.903,0.586,0.313,0.557,0.544,�k��,4.8,��
2022/03/23,02:40,0.502,0.697,0.456,0.901,0.586,0.313,0.556,0.545,�k��,4.1,��
2022/03/23,02:50,0.503,0.696,0.455,0.901,0.588,0.312,0.558,0.545,�k�k��,4.1,��
2022/03/23,03:00,0.500,0.695,0.456,0.903,0.588,0.312,0.557,0.544,�k�k��,3.7,��
2022/03/23,03:10,0.501,0.697,0.455,0.903,0.588,0.314,0.556,0.544,�k�k��,3.6,��
2022/03/23,03:20,0.504,0.697,0.456,0.904,0.588,0.313,0.557,0.545,�k�k��,3.1,��
2022/03/23,03:30,0.501,0.697,0.457,0.901,0.587,0.313,0.556,0.545,�k�k��,2.3,��
2022/03/23,03:40,0.503,0.697,0.458,0.902,0.587,0.314,0.557,0.545,���k��,2.5,��
2022/03/23,03:50,0.502,0.694,0.456,0.901,0.587,0.312,0.557,0.545,�k��,2.0,��
2022/03/23,04:00,0.502,0.696,0.456,0.902,0.587,0.312,0.556,0.543,�k�k��,2.2,��
2022/03/23,04:10,0.501,0.697,0.455,0.903,0.588,0.314,0.557,0.543,�k,3.0,��
2022/03/23,04:20,0.501,0.696,0.456,0.902,0.587,0.312,0.557,0.545,�k,3.0,��
2022/03/23,04:30,0.501,0.698,0.456,0.904,0.587,0.312,0.558,0.545,�k�k��,2.5,��
2022/03/23,04:40,0.501,0.697,0.457,0.903,0.588,0.312,0.558,0.544,�k��,2.6,��
2022/03/23,04:50,0.500,0.698,0.456,0.903,0.587,0.312,0.558,0.545,�k��,3.0,��
2022/03/23,05:00,0.500,0.698,0.457,0.905,0.587,0.312,0.558,0.546,�k��,2.9,��
2022/03/23,05:10,0.500,0.697,0.455,0.904,0.588,0.311,0.556,0.546,�k��,3.2,��
2022/03/23,05:20,0.502,0.697,0.456,0.903,0.589,0.312,0.556,0.545,�k��,2.3,��
2022/03/23,05:30,0.500,0.698,0.457,0.905,0.588,0.313,0.558,0.545,�k��,2.3,��
2022/03/23,05:40,0.501,0.697,0.457,0.903,0.587,0.312,0.557,0.545,�k�k��,2.2,��
2022/03/23,05:50,0.501,0.699,0.456,0.904,0.588,0.313,0.557,0.544,�k�k��,2.6,��
2022/03/23,06:00,0.501,0.697,0.458,0.904,0.587,0.312,0.558,0.546,�k�k��,2.0,��
2022/03/23,06:10,0.500,0.698,0.457,0.902,0.590,0.313,0.557,0.544,�k,1.7,��
2022/03/23,06:20,0.501,0.696,0.457,0.903,0.588,0.312,0.557,0.545,�k�k��,1.4,��
2022/03/23,06:30,0.502,0.699,0.457,0.905,0.588,0.313,0.558,0.546,���쐼,1.9,��
2022/03/23,06:40,0.502,0.698,0.456,0.904,0.589,0.313,0.558,0.546,���쐼,2.8,��
2022/03/23,06:50,0.501,0.697,0.457,0.905,0.588,0.314,0.557,0.545,���쐼,1.9,��
2022/03/23,07:00,0.502,0.698,0.457,0.904,0.589,0.312,0.557,0.546,-,CALM,��
2022/03/23,07:10,0.502,0.698,0.456,0.905,0.589,0.312,0.559,0.546,�k�k��,0.6,��
2022/03/23,07:20,0.503,0.698,0.458,0.905,0.590,0.313,0.559,0.545,�k��,1.5,��
2022/03/23,07:30,0.503,0.699,0.457,0.904,0.586,0.313,0.558,0.546,�k�k��,2.0,��
2022/03/23,07:40,0.504,0.699,0.457,0.905,0.588,0.313,0.558,0.545,�k�k��,1.5,��
2022/03/23,07:50,0.503,0.701,0.457,0.902,0.590,0.312,0.557,0.546,�k�k��,0.8,��
2022/03/23,08:00,0.503,0.698,0.456,0.905,0.590,0.313,0.559,0.544,�k�k��,1.5,��
2022/03/23,08:10,0.503,0.701,0.458,0.906,0.588,0.313,0.560,0.545,�k��,0.6,��
2022/03/23,08:20,0.504,0.700,0.458,0.905,0.590,0.314,0.559,0.545,���k��,1.2,��
2022/03/23,08:30,0.504,0.698,0.458,0.908,0.588,0.313,0.560,0.545,���k��,1.1,��
2022/03/23,08:40,0.504,0.698,0.457,0.902,0.589,0.315,0.560,0.546,���k��,1.1,��
2022/03/23,08:50,0.505,0.700,0.458,0.904,0.590,0.314,0.559,0.547,��,1.5,��
2022/03/23,09:00,0.505,0.699,0.458,0.902,0.588,0.314,0.559,0.545,���k��,1.4,��
2022/03/23,09:10,0.506,0.699,0.461,0.899,0.589,0.314,0.561,0.546,�k��,1.2,��
2022/03/23,09:20,0.509,0.699,0.460,0.899,0.589,0.314,0.558,0.546,���k��,0.6,��
2022/03/23,09:30,0.508,0.699,0.460,0.898,0.590,0.314,0.558,0.547,��,1.1,��
2022/03/23,09:40,0.511,0.700,0.459,0.896,0.592,0.315,0.558,0.547,���k��,1.5,��
2022/03/23,09:50,0.512,0.703,0.461,0.894,0.592,0.315,0.559,0.546,�k��,1.2,��
2022/03/23,10:00,0.515,0.704,0.460,0.891,0.594,0.315,0.559,0.546,�k,1.5,��
2022/03/23,10:10,0.515,0.706,0.461,0.892,0.595,0.314,0.563,0.546,-,CALM,��
2022/03/23,10:20,0.518,0.706,0.464,0.892,0.598,0.314,0.562,0.547,���쓌,2.0,��
2022/03/23,10:30,0.519,0.708,0.463,0.889,0.599,0.315,0.563,0.549,�k�k��,0.6,��
2022/03/23,10:40,0.521,0.710,0.463,0.888,0.601,0.314,0.562,0.547,�k,0.9,��
2022/03/23,10:50,0.523,0.714,0.464,0.887,0.604,0.314,0.563,0.548,�k��,1.7,��
2022/03/23,11:00,0.527,0.717,0.466,0.886,0.608,0.315,0.563,0.548,���k��,2.0,��
2022/03/23,11:10,0.530,0.719,0.466,0.886,0.612,0.315,0.564,0.547,��,2.6,��
2022/03/23,11:20,0.532,0.724,0.468,0.888,0.616,0.316,0.566,0.548,���쓌,2.6,��
2022/03/23,11:30,0.534,0.726,0.469,0.887,0.618,0.318,0.566,0.549,��,1.9,��
2022/03/23,11:40,0.536,0.727,0.471,0.889,0.620,0.319,0.567,0.551,�k��,1.5,��
2022/03/23,11:50,0.537,0.731,0.473,0.886,0.623,0.319,0.569,0.550,���k��,1.7,��
2022/03/23,12:00,0.538,0.735,0.472,0.890,0.626,0.319,0.570,0.550,���k��,1.2,��
2022/03/23,12:10,0.539,0.739,0.473,0.890,0.627,0.321,0.571,0.552,���k��,2.6,��
2022/03/23,12:20,0.543,0.739,0.477,0.890,0.630,0.323,0.571,0.552,���k��,2.0,��
2022/03/23,12:30,0.544,0.745,0.479,0.894,0.633,0.323,0.573,0.554,���k��,2.3,��
2022/03/23,12:40,0.544,0.747,0.478,0.895,0.635,0.323,0.572,0.552,��,1.5,��
2022/03/23,12:50,0.545,0.751,0.483,0.896,0.636,0.323,0.574,0.552,��,1.4,��
2022/03/23,13:00,0.548,0.752,0.483,0.895,0.639,0.325,0.573,0.555,��,1.7,��
2022/03/23,13:10,0.547,0.754,0.486,0.899,0.642,0.325,0.573,0.553,��,2.5,��
2022/03/23,13:20,0.550,0.759,0.486,0.900,0.643,0.326,0.574,0.556,���쓌,2.0,��
2022/03/23,13:30,0.550,0.761,0.487,0.899,0.647,0.326,0.574,0.557,���쓌,2.0,��
2022/03/23,13:40,0.551,0.765,0.489,0.901,0.648,0.327,0.577,0.556,���쓌,2.0,��
2022/03/23,13:50,0.552,0.767,0.490,0.904,0.650,0.327,0.576,0.556,���쓌,3.1,��
2022/03/23,14:00,0.553,0.771,0.492,0.905,0.651,0.328,0.577,0.558,���쓌,2.6,��
2022/03/23,14:10,0.553,0.771,0.494,0.907,0.654,0.328,0.576,0.557,�쓌,2.0,��
2022/03/23,14:20,0.553,0.774,0.493,0.908,0.655,0.329,0.577,0.555,�쓌,3.4,��
2022/03/23,14:30,0.553,0.776,0.496,0.909,0.658,0.330,0.579,0.555,�쓌,3.7,��
2022/03/23,14:40,0.553,0.779,0.499,0.912,0.659,0.329,0.577,0.556,�쓌,3.7,��
2022/03/23,14:50,0.555,0.778,0.498,0.913,0.661,0.328,0.579,0.556,�쓌,3.4,��
2022/03/23,15:00,0.555,0.781,0.501,0.914,0.664,0.329,0.581,0.556,�쓌,3.7,��
2022/03/23,15:10,0.558,0.784,0.502,0.915,0.666,0.329,0.580,0.556,�쓌,4.0,��
2022/03/23,15:20,0.556,0.788,0.504,0.917,0.667,0.332,0.580,0.557,�쓌,5.3,��
2022/03/23,15:30,0.557,0.787,0.504,0.918,0.667,0.331,0.581,0.558,�쓌,4.9,��
2022/03/23,15:40,0.558,0.791,0.506,0.919,0.667,0.331,0.581,0.559,��쓌,4.3,��
2022/03/23,15:50,0.559,0.792,0.506,0.922,0.668,0.332,0.582,0.559,��쓌,3.7,��
2022/03/23,16:00,0.559,0.793,0.507,0.923,0.671,0.332,0.580,0.560,��쓌,3.9,��
2022/03/23,16:10,0.558,0.794,0.506,0.923,0.672,0.331,0.583,0.559,�쓌,4.0,��
2022/03/23,16:20,0.559,0.795,0.507,0.926,0.674,0.332,0.582,0.559,�쓌,4.2,��
2022/03/23,16:30,0.560,0.796,0.509,0.925,0.673,0.333,0.582,0.560,�쓌,5.0,��
2022/03/23,16:40,0.561,0.798,0.510,0.927,0.675,0.332,0.584,0.559,��쓌,5.1,��
2022/03/23,16:50,0.560,0.797,0.510,0.928,0.675,0.334,0.584,0.560,��쓌,4.5,��
2022/03/23,17:00,0.558,0.797,0.511,0.929,0.675,0.333,0.584,0.561,��쓌,5.2,��
2022/03/23,17:10,0.559,0.799,0.512,0.931,0.676,0.333,0.586,0.559,��쓌,4.5,��
2022/03/23,17:20,0.558,0.798,0.511,0.931,0.676,0.333,0.586,0.560,��쓌,4.1,��
2022/03/23,17:30,0.559,0.799,0.513,0.934,0.677,0.334,0.584,0.560,��,4.4,��
2022/03/23,17:40,0.559,0.800,0.512,0.933,0.679,0.335,0.585,0.559,��,4.8,��
2022/03/23,17:50,0.560,0.801,0.512,0.933,0.678,0.334,0.585,0.560,��,4.2,��
2022/03/23,18:00,0.560,0.802,0.513,0.934,0.678,0.335,0.585,0.559,��,3.8,��
2022/03/23,18:10,0.562,0.802,0.513,0.937,0.678,0.334,0.588,0.560,��쐼,3.0,��
2022/03/23,18:20,0.560,0.801,0.511,0.935,0.679,0.335,0.585,0.560,��쐼,1.7,��
2022/03/23,18:30,0.560,0.802,0.513,0.938,0.679,0.335,0.587,0.560,��,1.5,��
2022/03/23,18:40,0.560,0.803,0.512,0.935,0.681,0.334,0.586,0.558,��,1.2,��
2022/03/23,18:50,0.561,0.805,0.513,0.936,0.679,0.335,0.586,0.559,��,1.7,��
2022/03/23,19:00,0.561,0.802,0.514,0.937,0.681,0.334,0.584,0.561,��,1.9,��
2022/03/23,19:10,0.561,0.806,0.514,0.940,0.681,0.335,0.584,0.560,��,2.0,��
2022/03/23,19:20,0.560,0.803,0.515,0.937,0.681,0.335,0.585,0.561,��,2.2,��
2022/03/23,19:30,0.561,0.804,0.515,0.937,0.683,0.335,0.585,0.561,��,2.6,��
2022/03/23,19:40,0.561,0.805,0.514,0.940,0.682,0.335,0.586,0.560,��,2.6,��
2022/03/23,19:50,0.561,0.805,0.513,0.941,0.683,0.336,0.586,0.559,��,3.0,��
2022/03/23,20:00,0.562,0.805,0.514,0.942,0.683,0.335,0.586,0.560,��,2.8,��
2022/03/23,20:10,0.563,0.805,0.515,0.941,0.685,0.334,0.587,0.561,��,2.5,��
2022/03/23,20:20,0.559,0.806,0.516,0.942,0.683,0.336,0.586,0.561,-,CALM,��
2022/03/23,20:30,0.562,0.806,0.515,0.941,0.684,0.335,0.586,0.560,-,CALM,��
2022/03/23,20:40,0.561,0.805,0.516,0.943,0.684,0.336,0.586,0.561,��쓌,0.9,��
2022/03/23,20:50,0.560,0.805,0.515,0.943,0.685,0.335,0.587,0.561,-,CALM,��
2022/03/23,21:00,0.561,0.806,0.515,0.944,0.684,0.337,0.588,0.562,��쓌,3.9,��
2022/03/23,21:10,0.561,0.807,0.517,0.943,0.686,0.337,0.587,0.560,��쓌,4.4,��
2022/03/23,21:20,0.562,0.805,0.516,0.946,0.685,0.337,0.587,0.562,��쓌,5.2,��
2022/03/23,21:30,0.562,0.805,0.516,0.944,0.684,0.336,0.586,0.561,��쓌,5.4,��
2022/03/23,21:40,0.561,0.806,0.516,0.946,0.684,0.337,0.586,0.562,��,5.1,��
2022/03/23,21:50,0.563,0.806,0.517,0.945,0.687,0.337,0.586,0.560,��,4.9,��
2022/03/23,22:00,0.560,0.807,0.516,0.945,0.687,0.336,0.586,0.561,��,4.7,��
2022/03/23,22:10,0.561,0.808,0.516,0.945,0.686,0.336,0.588,0.560,��,4.5,��
2022/03/23,22:20,0.563,0.807,0.517,0.947,0.687,0.337,0.586,0.560,��,4.5,��
2022/03/23,22:30,0.563,0.808,0.518,0.948,0.688,0.336,0.587,0.560,��쐼,4.8,��
2022/03/23,22:40,0.561,0.809,0.517,0.948,0.688,0.338,0.587,0.561,��쐼,2.8,��
2022/03/23,22:50,0.559,0.807,0.516,0.948,0.687,0.338,0.589,0.561,��,3.1,��
2022/03/23,23:00,0.563,0.811,0.516,0.947,0.689,0.338,0.589,0.560,��쓌,3.1,��
2022/03/23,23:10,0.563,0.808,0.516,0.949,0.688,0.336,0.588,0.562,��쓌,3.0,��
2022/03/23,23:20,0.562,0.806,0.519,0.949,0.689,0.338,0.590,0.562,��,2.0,��
2022/03/23,23:30,0.562,0.808,0.518,0.949,0.687,0.336,0.589,0.562,��쓌,2.0,��
2022/03/23,23:40,0.562,0.809,0.520,0.950,0.691,0.337,0.588,0.561,��,3.2,�L
2022/03/23,23:50,0.563,0.811,0.520,0.949,0.688,0.339,0.587,0.562,��쐼,2.0,�L
